{"data":{"norad_id":66292,"intl_designator":"2025-247AD","name":"STARLINK-35798","alt_names":[],"object_type":"PAYLOAD","status":"ACTIVE","operator":null,"country":"US","launch_date":"2025-10-31","launch_site_code":"AFWTR","launch_vehicle":null,"mission":null,"orbit_class":"UNKNOWN","rcs_meters":null,"size_class":null,"mass_kg":null,"dimensions":null,"purposes":["comms"],"wikipedia_slug":null,"has_3d_model":false,"image_url":null,"decayed_at":null,"tle_current":{"epoch":"2026-09-20T13:06:21.992832Z","epoch_age_seconds":92740,"freshness":"FRESH","line1":"1 66292U 25247AD  26263.54608788  .00025049  00000+0  74976-3 0  9995","line2":"2 66292  53.1669   1.6305 0001217  83.0258 277.0883 15.34410496 50927","mean_motion":15.34410496,"eccentricity":0.0001217,"inclination_deg":53.1669,"raan_deg":1.6305,"arg_perigee_deg":83.0258,"mean_anomaly_deg":277.0883,"bstar":0.00074976,"rev_number":5092,"period_min":93.847116124002,"perigee_km":461.83951760034,"apogee_km":463.50457052167,"semimajor_km":6840.809044061,"source":"CELESTRAK","updated_at":"2026-09-21T09:00:35.872408Z"}}}